Weather in Il'ichevo

Russia / Republic of Crimea     45°17′04″N   35°44′26″E
temp.,
°C
wind,
m/s
gust,
m/s
humid.,
%
clouds,
%
prec.,
mm/h
press.,
hPa
HPBL,
m
28 february, sun
sun2800:00+5nnw71090100 1.3 1018506
03:00+5nnw6885100 1.4 1018639
06:00+5nnw6978100 0.1 1018697
09:00+4nnw798199 0.1 1020776
12:00+5nw787995 0.4 1021829
15:00+5nw797796 0.9 1021853
18:00+4nw578281 0.2 1021765
21:00+3nnw368785 0.3 1022252
1 march, mon
mon100:00+4nnw368795 0.3 1023630
03:00+3wnw469090 0.5 1024256
06:00+2w3692100 0.1 1024174
09:00+3wnw458199 0.1 1025492
12:00+5nw436756 0.1 1026872
15:00+5nnw447171 0.1 1026788
18:00+3nne458283 0.1 1027427
21:00+1n238657 0.1 102971
2 march, tue
tue200:00+1n23850 0.0 102947
03:00+1n23830 0.0 103038
06:00+2nnw246685 0.0 103099
09:00+4nnw345691 0.1 10301088
12:00+5nw545155 0.0 10301192
15:00+6wnw465549 0.0 10281111
18:00+5w376144 0.0 1026587
21:00+3w7116952 0.0 1025472
3 march, wed
wed300:00+2w6137456 0.0 1023490
03:00+3wsw7167731 0.0 1021640
06:00+5wnw9138067 0.0 1020721
09:00+5nw8117783 0.1 1022947
12:00+6nnw896196 0.2 10231359
15:00+5nnw796196 0.3 10241245
18:00+4n576682 0.0 1025724
21:00+2n237541 0.0 102840
4 march, thu
thu400:00+1nnw12780 0.0 102824
03:000sw11850 0.0 102824
06:000sw12870 0.0 102723
09:00+3ssw23660 0.0 1027162
12:00+8ssw67560 0.0 10261163
15:00+8ssw78550 0.0 10241116
18:00+6ssw710700 0.0 1022670
21:00+5ssw612740 0.0 1022472